Weather Roundup
Issued by NWS

Home | Current Version | Previous Version | Graphics & Text | Print | Product List | Glossary Off
Versions: 1 2 3 4 5 6 7 8 9 10 11 12 13 14 15 16 17 18 19 20 21 22 23 24 25 26 27 28 29 30 31 32 33 34 35 36 37 38 39 40 41 42 43 44 45 46 47 48 49 50

347
NZUS93 KARX 102059
HRRWXR

CURRENT HOURLY OBSERVATIONS ACROSS
MUCH OF THE UPPER MISSISSIPPI VALLEY
NATIONAL WEATHER SERVICE LA CROSSE WI
300 PM CST WED FEB 10 2016


...SOUTHEAST MINNESOTA...


CITY           SKY/WX    TMP DP  RH WIND       PRES   REMARKS
ROCHESTER      CLOUDY     9  -1  64 N8        30.04S WCI  -3
ROCHESTER/MAYO CLOUDY    10  -1  61 W3        30.06S
WINONA         MOSUNNY   14   1  57 NW6       30.11R WCI   5
AUSTIN         MOSUNNY   10   0  61 N5        30.04S WCI   2
ALBERT LEA     PTSUNNY   12   1  62 NE5       30.04R WCI   4
DODGE CENTER   CLOUDY    10  -2  56 N6        30.04R WCI   1
PRESTON        CLOUDY     8  -3  59 N8        30.04S WCI  -4
OWATONNA       CLOUDY    12   0  57 N7        30.06R WCI   2
FARIBAULT      CLOUDY    10   0  61 N6        30.08R WCI   1
$$

...ELSEWHERE IN MINNESOTA...


CITY           SKY/WX    TMP DP  RH WIND       PRES   REMARKS
MINNEAPOLIS    CLOUDY    13  -3  49 NE8       30.11R WCI   2
INTNL FALLS    SUNNY      1 -11  57 N6        30.16R WCI -10
DULUTH         SUNNY      9  -9  44 NW8       30.06R WCI  -3
RED WING       PTSUNNY    9  -6  52 N6        30.11S WCI  -1
REDWOOD FALLS  CLOUDY    14   2  58 E8        30.08R WCI   3
MANKATO        CLOUDY    12   0  57 NE3       30.08R
WORTHINGTON    CLOUDY    10   5  79 E14       30.01R WCI  -5
FAIRMONT       CLOUDY    10   3  72 E7        30.05S WCI   0
$$

...SOUTHWEST WISCONSIN...


CITY           SKY/WX    TMP DP  RH WIND       PRES   REMARKS
LA CROSSE      SUNNY     11  -2  56 NW9       30.09S WCI  -2
PRAIRIE DU CHI MOSUNNY   16  -3  44 W8        30.07S WCI   5
BOSCOBEL       MOSUNNY   17  -2  43 N8        30.07S WCI   7
LONE ROCK      NOT AVBL
PLATTEVILLE    SUNNY     14   1  54 W5        30.02S WCI   7
FORT MC COY    SUNNY     13  -1  54 N6        30.07S WCI   4
VIROQUA        FAIR      11  -2  54 NW6       30.01S WCI   2
WIS DELLS      SUNNY     14  -2  48 NW8       30.01F WCI   3
$$

...ELSEWHERE IN WISCONSIN...


CITY           SKY/WX    TMP DP  RH WIND       PRES   REMARKS
MILWAUKEE      PTSUNNY   14  -2  49 NW10      30.02R WCI   1
MADISON        PTSUNNY   13  -2  51 NW10      30.03R WCI   0
GREEN BAY      SUNNY     13  -5  44 NW13      30.02R WCI  -2
EAU CLAIRE     SUNNY     10  -4  53 N7        30.09R WCI  -1
BLACK RVR FLS  FAIR      14  -4  45 NW7       30.06S WCI   4
MEDFORD        PTSUNNY   10  -3  54 N6        29.98S WCI   1
WAUSAU         SUNNY     14  -4  44 NW9       29.98S WCI   2
WIS RAPIDS     SUNNY     12  -3  51 N7G16     30.04R WCI   1
MARSHFIELD     SUNNY     11  -4  51 N14       30.00S WCI  -5
RICE LAKE      SUNNY     10  -2  56 NW8       30.09S WCI  -2
$$

...NORTHEAST IOWA...


CITY           SKY/WX    TMP DP  RH WIND       PRES   REMARKS
WATERLOO       CLOUDY    14   1  56 CALM      30.06S
DUBUQUE        CLOUDY    14   1  56 W9        30.03S WCI   2
DECORAH        CLOUDY    10  -4  52 NW8       30.03S WCI  -1
MASON CITY     CLOUDY    12   1  61 NE5       30.07R WCI   4
CHARLES CITY   CLOUDY    12  -2  52 N7        30.06S WCI   2
OELWEIN        CLOUDY    12   0  57 NW6       30.05S WCI   3
$$

...ELSEWHERE IN IOWA...


CITY           SKY/WX    TMP DP  RH WIND       PRES   REMARKS
DES MOINES     CLOUDY    19  12  74 E10       30.03S WCI   7
IOWA CITY      CLOUDY    18   2  49 N6        30.09S WCI  10
FORT DODGE     CLOUDY    14   7  73 E13       30.04R WCI   0
MARSHALLTOWN   CLOUDY    13   7  77 E6        30.05S WCI   4
CEDAR RAPIDS   CLOUDY    16   4  59 N7        30.05S WCI   6
$$

...NORTHERN ILLINOIS...


CITY           SKY/WX    TMP DP  RH WIND       PRES   REMARKS
CHICAGO-OHARE  MOSUNNY   17   2  51 NW12      30.01S WCI   4
CHICAGO-MIDWAY PTSUNNY   19   2  47 W15       30.02S WCI   5
MOLINE         CLOUDY    19   2  47 NW9       30.07S WCI   8
ROCKFORD       PTSUNNY   17   2  51 NW12      30.05S WCI   4
PEORIA         CLOUDY    20   2  45 W10       30.07F WCI   9
$$

NOTE: "FAIR" INDICATES FEW OR NO CLOUDS BELOW 12,000 FEET WITH NO
SIGNIFICANT WEATHER AND/OR OBSTRUCTIONS TO VISIBILITY. WIND
SPEEDS ARE IN MILES-PER-HOUR.




USA.gov is the U.S. government's official web portal to all federal, state and local government web resources and services.